Weather History for Fort Yukon, AK

Change the Weather History Date:

Thursday, January 19, 2012

  Actual Average Record
Temperature  
Mean Temperature -22 °F -  
Max Temperature -18 °F -5 °F 24 °F (2009)
Min Temperature -27 °F -18 °F -50 °F (2005)
Degree Days  
Heating Degree Days 88    
Moisture  
Dew Point -28 °F    
Average Humidity 67    
Maximum Humidity 91    
Minimum Humidity 63    
Precipitation  
Precipitation 0.00 in - - ()
Sea Level Pressure  
Sea Level Pressure 30.15 in    
Wind  
Wind Speed 0 mph (West)    
Max Wind Speed 4 mph    
Max Gust Speed -    
Visibility 9 miles    
Events      
Averages and records for this station are not official NWS values.
T = Trace of Precipitation, MM = Missing Value Source: NWS Daily Summary

Daily Weather History Graph

Daily Weather History Graph

Search for Another Location

Airport:

Trip Planner

Search our weather history database for the weather conditions in past years. The results will help you decide how hot, cold, wet, or windy it might be!

Date:

Astronomy

Jan. 19, 2012 Rise Set
Actual Time 10:30 AM AKST 3:13 PM AKST
Civil Twilight 9:12 AM AKST 4:32 PM AKST
Nautical Twilight 8:01 AM AKST 5:43 PM AKST
Astronomical Twilight 6:57 AM AKST 6:46 PM AKST
Moon 8:24 AM AKST (1/19) 10:45 AM AKST (1/19)
Length of Visible Light 7h 20m
Length of Day
4h 43m
Waning Crescent, 14% of the Moon is Illuminated
Jan 19
Waning Crescent
Jan 22
New
Jan 30
First Quarter
Feb 7
Full
Feb 14
Last Quarter

Hourly Weather History & Observations

Time (AKST) Temp. Windchill Dew Point Humidity Pressure Visibility Wind Dir Wind Speed Gust Speed Precip Events Conditions
12:16 AM -20.2 °F - -29.2 °F 63% 30.13 in 1.2 mi Calm Calm - N/A   Overcast
12:36 AM -18.4 °F - -27.4 °F 63% 30.13 in 1.2 mi Calm Calm - N/A   Overcast
12:56 AM -18.4 °F - -27.4 °F 63% 30.13 in 1.8 mi Calm Calm - N/A   Overcast
1:16 AM -18.4 °F - -27.4 °F 63% 30.12 in 4.0 mi Calm Calm - N/A   Overcast
1:36 AM -18.4 °F -28.9 °F -27.4 °F 63% 30.13 in 8.0 mi North 3.5 mph - N/A   Mostly Cloudy
1:56 AM -20.2 °F -30.9 °F -29.2 °F 63% 30.14 in 10.0 mi North 3.5 mph - N/A   Mostly Cloudy
2:16 AM -20.2 °F - - N/A% 30.13 in 10.0 mi Calm Calm - N/A   Overcast
2:36 AM -20.2 °F - - N/A% 30.13 in 10.0 mi Calm Calm - N/A   Overcast
2:56 AM -20.2 °F - - N/A% 30.13 in 10.0 mi Calm Calm - N/A   Mostly Cloudy
3:16 AM -22.0 °F - - N/A% 30.13 in 10.0 mi Calm Calm - N/A   Mostly Cloudy
3:36 AM -23.8 °F - - N/A% 30.13 in 10.0 mi Calm Calm - N/A   Mostly Cloudy
3:56 AM -23.8 °F - - N/A% 30.13 in 10.0 mi Calm Calm - N/A   Partly Cloudy
4:16 AM -25.6 °F - - N/A% 30.13 in 10.0 mi Calm Calm - N/A   Clear
4:36 AM -25.6 °F - - N/A% 30.13 in 10.0 mi Calm Calm - N/A   Partly Cloudy
4:56 AM -25.6 °F - - N/A% 30.13 in 10.0 mi Calm Calm - N/A   Scattered Clouds
5:16 AM -25.6 °F - - N/A% 30.13 in 10.0 mi Calm Calm - N/A   Partly Cloudy
5:36 AM -25.6 °F - - N/A% 30.13 in 10.0 mi Calm Calm - N/A   Partly Cloudy
5:56 AM -25.6 °F - - N/A% 30.13 in 10.0 mi Calm Calm - N/A   Partly Cloudy
6:16 AM -25.6 °F - - N/A% 30.13 in 10.0 mi Calm Calm - N/A   Partly Cloudy
6:36 AM -23.8 °F - -25.6 °F 91% 30.13 in 10.0 mi Calm Calm - N/A   Partly Cloudy
6:56 AM -23.8 °F - - N/A% 30.12 in 10.0 mi Calm Calm - N/A   Clear
7:16 AM -23.8 °F - - N/A% 30.13 in 10.0 mi Calm Calm - N/A   Partly Cloudy
7:36 AM -23.8 °F - - N/A% 30.13 in 10.0 mi Calm Calm - N/A   Mostly Cloudy
7:56 AM -25.6 °F - - N/A% 30.13 in 10.0 mi Calm Calm - N/A   Mostly Cloudy
8:16 AM -25.6 °F - - N/A% 30.12 in 10.0 mi Calm Calm - N/A   Mostly Cloudy
8:36 AM -25.6 °F - - N/A% 30.12 in 10.0 mi Calm Calm - N/A   Overcast
8:56 AM -25.6 °F - - N/A% 30.13 in 10.0 mi Calm Calm - N/A   Overcast
9:16 AM -23.8 °F - - N/A% 30.13 in 10.0 mi Calm Calm - N/A   Mostly Cloudy
9:36 AM -23.8 °F - - N/A% 30.14 in 10.0 mi Calm Calm - N/A   Mostly Cloudy
9:56 AM -23.8 °F - - N/A% 30.14 in 10.0 mi Calm Calm - N/A   Scattered Clouds
10:16 AM -23.8 °F - - N/A% 30.14 in 10.0 mi Calm Calm - N/A   Partly Cloudy
10:36 AM -25.6 °F - - N/A% 30.15 in 10.0 mi Calm Calm - N/A   Partly Cloudy
10:56 AM -25.6 °F - - N/A% 30.15 in 10.0 mi Calm Calm - N/A   Partly Cloudy
11:16 AM -25.6 °F - - N/A% 30.16 in 10.0 mi Calm Calm - N/A   Scattered Clouds
11:36 AM -25.6 °F - - N/A% 30.16 in 9.0 mi Calm Calm - N/A   Scattered Clouds
11:56 AM -23.8 °F - - N/A% 30.16 in 9.0 mi Calm Calm - N/A   Scattered Clouds
12:16 PM -23.8 °F - - N/A% 30.17 in 9.0 mi Calm Calm - N/A   Scattered Clouds
12:36 PM -23.8 °F - - N/A% 30.17 in 9.0 mi Calm Calm - N/A   Scattered Clouds
12:56 PM -23.8 °F - - N/A% 30.17 in 7.0 mi Calm Calm - N/A   Scattered Clouds
1:16 PM -23.8 °F - - N/A% 30.18 in 10.0 mi Calm Calm - N/A   Scattered Clouds
1:36 PM -25.6 °F - - N/A% 30.18 in 10.0 mi Calm Calm - N/A   Scattered Clouds
1:56 PM -25.6 °F - - N/A% 30.19 in 10.0 mi Calm Calm - N/A   Scattered Clouds
2:16 PM -25.6 °F -37.1 °F - N/A% 30.19 in 10.0 mi SSW 3.5 mph - N/A   Scattered Clouds
2:36 PM -25.6 °F -37.1 °F - N/A% 30.18 in 10.0 mi SSW 3.5 mph - N/A   Scattered Clouds
2:56 PM -25.6 °F - - N/A% 30.18 in 10.0 mi Calm Calm - N/A   Scattered Clouds
3:16 PM -25.6 °F - - N/A% 30.18 in 10.0 mi Calm Calm - N/A   Scattered Clouds
3:36 PM -25.6 °F - - N/A% 30.20 in 10.0 mi Calm Calm - N/A   Scattered Clouds
3:56 PM -27.4 °F - - N/A% 30.19 in 10.0 mi Calm Calm - N/A   Scattered Clouds
4:16 PM -25.6 °F -37.1 °F - N/A% 30.19 in 10.0 mi WSW 3.5 mph - N/A   Scattered Clouds
4:36 PM -27.4 °F - - N/A% 30.19 in 10.0 mi Calm Calm - N/A   Scattered Clouds
4:56 PM -27.4 °F - - N/A% 30.19 in 10.0 mi Calm Calm - N/A   Scattered Clouds
5:16 PM -27.4 °F - - N/A% 30.19 in 10.0 mi Calm Calm - N/A   Scattered Clouds
5:36 PM -27.4 °F - - N/A% 30.20 in 10.0 mi Calm Calm - N/A   Scattered Clouds
5:56 PM -27.4 °F - - N/A% 30.20 in 10.0 mi Calm Calm - N/A   Partly Cloudy
6:16 PM -27.4 °F - - N/A% 30.21 in 10.0 mi Calm Calm - N/A   Scattered Clouds
6:36 PM -27.4 °F - - N/A% 30.21 in 10.0 mi Calm Calm - N/A   Scattered Clouds
6:56 PM -27.4 °F - - N/A% 30.21 in 10.0 mi Calm Calm - N/A   Scattered Clouds
7:16 PM -27.4 °F - - N/A% 30.22 in 10.0 mi Calm Calm - N/A   Scattered Clouds
7:36 PM -27.4 °F - - N/A% 30.23 in 10.0 mi Calm Calm - N/A   Scattered Clouds
7:56 PM -29.2 °F - - N/A% 30.23 in 10.0 mi Calm Calm - N/A   Scattered Clouds
8:16 PM -31.0 °F - - N/A% 30.23 in 7.0 mi Calm Calm - N/A   Clear
8:36 PM -32.8 °F - - N/A% 30.24 in 5.0 mi Calm Calm - N/A   Clear
8:56 PM -34.6 °F - - N/A% 30.24 in 5.0 mi Calm Calm - N/A   Clear
9:16 PM -32.8 °F - - N/A% 30.24 in 4.0 mi Calm Calm - N/A   Clear
9:36 PM -34.6 °F - - N/A% 30.24 in 7.0 mi Calm Calm - N/A   Clear
9:56 PM -34.6 °F - - N/A% 30.24 in 5.0 mi Calm Calm - N/A   Clear
10:16 PM -34.6 °F - - N/A% 30.24 in 3.0 mi Calm Calm - N/A   Clear
10:36 PM -32.8 °F - - N/A% 30.23 in 5.0 mi Calm Calm - N/A   Clear
10:56 PM -34.6 °F - - N/A% 30.24 in 5.0 mi Calm Calm - N/A   Clear
11:16 PM -34.6 °F - - N/A% 30.24 in 6.0 mi Calm Calm - N/A   Clear
11:36 PM -36.4 °F - - N/A% 30.24 in 4.0 mi Calm Calm - N/A   Clear
11:56 PM -34.6 °F - - N/A% 30.25 in 5.0 mi Calm Calm - N/A   Clear